Owatonna, MN

6:24 PM CDT on March 22, 2017 (GMT -0500)
Owatonna Degner Regional

Weather History for KOWA - June, 2013

Change the Weather History Date:

Tuesday, June 4, 2013

  Actual Average Record
Temperature  
Mean Temperature 58 °F -  
Max Temperature 62 °F 79 °F 94 °F (1968)
Min Temperature 53 °F 54 °F 36 °F (1964)
Degree Days  
Heating Degree Days 8    
Growing Degree Days 8 (Base 50)    
Moisture  
Dew Point 52 °F    
Average Humidity 82    
Maximum Humidity 94    
Minimum Humidity 55    
Precipitation  
Precipitation 0.27 in - - ()
Sea Level Pressure  
Sea Level Pressure 30.05 in    
Wind  
Wind Speed 10 mph (ESE)    
Max Wind Speed 17 mph    
Max Gust Speed 25 mph    
Visibility 10 miles    
Events Rain , Thunderstorm    
Averages and records for this station are not official NWS values.
T = Trace of Precipitation, MM = Missing Value Source: NWS Daily Summary

Daily Weather History Graph

Daily Weather History Graph

Search for Another Location

Airport or City:

Trip Planner

Search our weather history database for the weather conditions in past years. The results will help you decide how hot, cold, wet, or windy it might be!

Date:

Astronomy

Jun. 04, 2013 Rise Set
Actual Time 5:31 AM CDT 8:51 PM CDT
Civil Twilight 4:55 AM CDT 9:27 PM CDT
Nautical Twilight 4:08 AM CDT 10:14 PM CDT
Astronomical Twilight 3:11 AM CDT 11:12 PM CDT
Moon 3:08 AM CDT (6/4) 5:15 PM CDT (6/4)
Length of Visible Light 16h 32m
Length of Day
15h 20m
Waning Crescent, 14% of the Moon is Illuminated
Jun 4
Waning Crescent
Jun 8
New
Jun 16
First Quarter
Jun 23
Full
Jun 29
Last Quarter

Hourly Weather History & Observations

Time (CDT) Temp. Dew Point Humidity Pressure Visibility Wind Dir Wind Speed Gust Speed Precip Events Conditions
12:14 AM 62.6 °F 48.2 °F 59% 30.02 in 10.0 mi East 9.2 mph - N/A   Overcast
12:34 AM 62.6 °F 46.4 °F 55% 30.03 in 10.0 mi East 9.2 mph - N/A   Overcast
12:54 AM 62.6 °F 46.4 °F 55% 30.01 in 10.0 mi ESE 12.7 mph - N/A   Overcast
1:14 AM 62.6 °F 46.4 °F 55% 30.01 in 10.0 mi ESE 10.4 mph - N/A   Overcast
1:34 AM 62.6 °F 46.4 °F 55% 30.01 in 10.0 mi ESE 12.7 mph - N/A   Overcast
1:55 AM 62.6 °F 46.4 °F 55% 30.00 in 10.0 mi ESE 13.8 mph - N/A   Overcast
2:14 AM 62.6 °F 48.2 °F 59% 30.01 in 10.0 mi SE 12.7 mph 17.3 mph N/A   Overcast
2:34 AM 62.6 °F 48.2 °F 59% 30.01 in 10.0 mi SE 13.8 mph - N/A   Overcast
2:54 AM 62.6 °F 48.2 °F 59% 30.02 in 10.0 mi SE 9.2 mph - N/A   Scattered Clouds
3:14 AM 62.6 °F 48.2 °F 59% 30.04 in 10.0 mi SE 4.6 mph - N/A   Mostly Cloudy
3:34 AM 62.6 °F 48.2 °F 59% 30.08 in 10.0 mi Calm Calm - N/A   Overcast
3:55 AM 62.6 °F 50.0 °F 63% 30.05 in 10.0 mi SE 5.8 mph - N/A   Mostly Cloudy
4:14 AM 60.8 °F 50.0 °F 68% 30.05 in 10.0 mi ESE 4.6 mph - N/A   Mostly Cloudy
4:35 AM 60.8 °F 51.8 °F 72% 30.05 in 10.0 mi SE 4.6 mph - N/A Thunderstorm Thunderstorm
4:54 AM 59.0 °F 51.8 °F 77% 30.06 in 10.0 mi SE 5.8 mph - N/A Thunderstorm Clear
5:14 AM 59.0 °F 51.8 °F 77% 30.05 in 10.0 mi ESE 8.1 mph - N/A Rain , Thunderstorm Light Thunderstorms and Rain
5:34 AM 59.0 °F 53.6 °F 82% 30.05 in 10.0 mi SE 6.9 mph - N/A Rain Light Rain
5:54 AM 57.2 °F 53.6 °F 88% 30.04 in 10.0 mi ESE 5.8 mph - 0.02 in Rain Rain
6:14 AM 57.2 °F 53.6 °F 88% 30.02 in 10.0 mi East 8.1 mph - N/A Rain Light Rain
6:34 AM 57.2 °F 53.6 °F 88% 30.04 in 10.0 mi SE 5.8 mph - N/A   Clear
6:54 AM 57.2 °F 53.6 °F 88% 30.05 in 10.0 mi ESE 6.9 mph - 0.01 in   Clear
7:14 AM 57.2 °F 53.6 °F 88% 30.05 in 10.0 mi ESE 8.1 mph - N/A   Scattered Clouds
7:34 AM 57.2 °F 53.6 °F 88% 30.05 in 10.0 mi ESE 8.1 mph - N/A   Light Drizzle
7:54 AM 57.2 °F 53.6 °F 88% 30.05 in 10.0 mi ESE 9.2 mph - N/A   Scattered Clouds
8:14 AM 59.0 °F 53.6 °F 82% 30.04 in 10.0 mi SE 10.4 mph - N/A   Scattered Clouds
8:34 AM 59.0 °F 53.6 °F 82% 30.03 in 10.0 mi SE 13.8 mph - N/A   Clear
8:54 AM 60.8 °F 53.6 °F 77% 30.04 in 10.0 mi SE 13.8 mph 18.4 mph N/A   Clear
9:14 AM 60.8 °F 53.6 °F 77% 30.04 in 10.0 mi SSE 17.3 mph - N/A   Clear
9:34 AM 60.8 °F 51.8 °F 72% 30.04 in 10.0 mi SSE 15.0 mph 20.7 mph N/A Rain Light Rain
9:54 AM 60.8 °F 51.8 °F 72% 30.04 in 10.0 mi SSE 13.8 mph 19.6 mph N/A Rain Light Rain
10:14 AM 60.8 °F 53.6 °F 77% 30.04 in 10.0 mi SSE 12.7 mph - N/A   Light Drizzle
10:34 AM 59.0 °F 53.6 °F 82% 30.05 in 10.0 mi SSE 12.7 mph - N/A Rain Rain
10:54 AM 57.2 °F 53.6 °F 88% 30.05 in 10.0 mi SSE 13.8 mph - N/A Rain Rain
11:14 AM 59.0 °F 53.6 °F 82% 30.05 in 10.0 mi SSE 11.5 mph - N/A   Light Drizzle
11:34 AM 59.0 °F 53.6 °F 82% 30.05 in 10.0 mi SE 9.2 mph - N/A   Overcast
11:54 AM 59.0 °F 53.6 °F 82% 30.05 in 10.0 mi SE 11.5 mph 18.4 mph N/A Rain Light Rain
12:14 PM 57.2 °F 53.6 °F 88% 30.06 in 7.0 mi SE 11.5 mph 17.3 mph 0.02 in Rain Rain
12:34 PM 57.2 °F 55.4 °F 94% 30.07 in 10.0 mi ESE 9.2 mph - 0.04 in Rain Light Rain
12:54 PM 57.2 °F 55.4 °F 94% 30.07 in 10.0 mi ESE 8.1 mph - 0.07 in Rain Rain
1:14 PM 57.2 °F 55.4 °F 94% 30.08 in 7.0 mi ESE 10.4 mph - 0.01 in Rain Light Rain
1:34 PM 57.2 °F 55.4 °F 94% 30.08 in 10.0 mi ESE 6.9 mph - 0.04 in Rain Light Rain
1:54 PM 57.2 °F 55.4 °F 94% 30.08 in 7.0 mi East 8.1 mph - 0.05 in Rain Rain
2:14 PM 57.2 °F 55.4 °F 94% 30.07 in 7.0 mi East 10.4 mph - 0.01 in Rain Light Rain
2:34 PM 57.2 °F 55.4 °F 94% 30.07 in 10.0 mi ESE 10.4 mph - 0.02 in Rain Light Rain
2:54 PM 57.2 °F 55.4 °F 94% 30.07 in 10.0 mi ESE 10.4 mph - 0.04 in Rain Light Rain
3:14 PM 57.2 °F 55.4 °F 94% 30.06 in 10.0 mi ESE 11.5 mph 16.1 mph 0.02 in Rain , Thunderstorm Light Thunderstorms and Rain
3:34 PM 57.2 °F 55.4 °F 94% 30.05 in 10.0 mi East 13.8 mph - 0.06 in Rain Rain
3:54 PM 57.2 °F 55.4 °F 94% 30.06 in 10.0 mi East 9.2 mph - 0.07 in Rain , Thunderstorm Light Thunderstorms and Rain
4:14 PM 57.2 °F 55.4 °F 94% 30.05 in 5.0 mi East 11.5 mph - N/A   Drizzle
4:34 PM 57.2 °F 55.4 °F 94% 30.04 in 10.0 mi ESE 16.1 mph 21.9 mph 0.01 in Rain Rain
4:54 PM 57.2 °F 53.6 °F 88% 30.05 in 10.0 mi SE 15.0 mph 21.9 mph 0.01 in Rain Light Rain
5:14 PM 57.2 °F 53.6 °F 88% 30.06 in 10.0 mi SE 13.8 mph 24.2 mph N/A   Scattered Clouds
5:34 PM 57.2 °F 53.6 °F 88% 30.07 in 10.0 mi SE 13.8 mph 25.3 mph N/A   Light Drizzle
5:54 PM 57.2 °F 51.8 °F 82% 30.06 in 10.0 mi ESE 16.1 mph 23.0 mph N/A   Overcast
6:14 PM 57.2 °F 51.8 °F 82% 30.06 in 10.0 mi ESE 11.5 mph 20.7 mph N/A   Overcast
6:34 PM 55.4 °F 51.8 °F 88% 30.06 in 10.0 mi ESE 12.7 mph 18.4 mph N/A   Overcast
6:54 PM 55.4 °F 51.8 °F 88% 30.06 in 10.0 mi ESE 10.4 mph - N/A   Overcast
7:14 PM 57.2 °F 51.8 °F 82% 30.06 in 10.0 mi ESE 15.0 mph 19.6 mph N/A   Overcast
7:34 PM 55.4 °F 51.8 °F 88% 30.06 in 10.0 mi East 11.5 mph 18.4 mph N/A   Overcast
7:54 PM 55.4 °F 51.8 °F 88% 30.05 in 10.0 mi ESE 12.7 mph - N/A   Overcast
8:14 PM 55.4 °F 51.8 °F 88% 30.06 in 10.0 mi ESE 16.1 mph 19.6 mph N/A   Overcast
8:34 PM 55.4 °F 51.8 °F 88% 30.06 in 10.0 mi ESE 16.1 mph 21.9 mph N/A   Overcast
8:54 PM 55.4 °F 51.8 °F 88% 30.06 in 10.0 mi ESE 17.3 mph 23.0 mph N/A   Overcast
9:14 PM 53.6 °F 51.8 °F 94% 30.06 in 10.0 mi SE 16.1 mph 20.7 mph N/A   Overcast
9:34 PM 53.6 °F 50.0 °F 88% 30.07 in 10.0 mi ESE 13.8 mph - N/A   Overcast
9:54 PM 53.6 °F 50.0 °F 88% 30.08 in 10.0 mi ESE 11.5 mph 19.6 mph N/A   Overcast
10:14 PM 53.6 °F 50.0 °F 88% 30.08 in 10.0 mi ESE 13.8 mph 17.3 mph N/A   Overcast
10:34 PM 53.6 °F 51.8 °F 94% 30.08 in 10.0 mi ESE 11.5 mph - N/A   Overcast
10:54 PM 53.6 °F 51.8 °F 94% 30.07 in 10.0 mi ESE 13.8 mph - N/A   Overcast
11:14 PM 53.6 °F 51.8 °F 94% 30.07 in 10.0 mi ESE 11.5 mph - N/A   Overcast
11:34 PM 53.6 °F 51.8 °F 94% 30.06 in 10.0 mi ESE 13.8 mph - N/A   Overcast
11:54 PM 53.6 °F 51.8 °F 94% 30.06 in 10.0 mi SE 13.8 mph - N/A   Overcast